Location: Vihti�l�
(61.3833°N, 23.0667°E)
Time: 03:40:07
(UTC+00:00)

Okean 1 - Pass Details

Date: 29 November 2020
Orbit: 538 x 555 km, 82.5° (Epoch: 22 January)

Event Time Altitude Azimuth Distance (km) Brightness Sun altitude
Exits shadow 05:34:47 - 342° (NNW) 2,246 6.0 -9.9°
Reaches altitude 10° 05:35:46 10° 340° (NNW) 1,851 5.6 -9.8°
Maximum altitude 05:39:46 58° 262° (W) 658 3.4 -9.4°
Drops below altitude 10° 05:43:45 10° 183° (S) 1,842 6.4 -9.0°
Sets 05:45:56 0° 180° (S) 2,733 7.3 -8.8°
